Location: Wiesbaden
(50.0830°N, 8.2500°E)
Time: 07:48:25
(UTC+01:00)

ISS - Pass Details

Date: 10 December 2018
Orbit: 401 x 408 km, 51.6° (Epoch: 12 December)

Event Time Altitude Azimuth Distance (km) Brightness Sun altitude
Rises 19:03:46 0° 283° (WNW) 2,319 1.2 -24.3°
Reaches altitude 10° 19:06:20 10° 262° (W) 1,455 0.0 -24.7°
Maximum altitude 19:08:31 17° 220° (SW) 1,113 -1.1 -25.1°
Enters shadow 19:09:01 16° 208° (SSW) 1,133 -1.2 -25.1°
